GW1699 Weather Reports


time (UTC)temp
C
wind
direction
speed
KPH
gust
KPH
rain 1hr
cm
rain 24hr
cm
rain mn
cm
humidity
%
barometer
mb
20260508052737 2 193 0.0 0.0 0.00 0.00 0.00 94 1013.8
20260508052132 2 192 0.0 0.0 0.00 0.00 0.00 94 1013.8
20260508051526 3 192 0.0 0.0 0.00 0.00 0.00 94 1013.8
20260508050945 3 192 0.0 0.0 0.00 0.00 0.00 93 1013.8
20260508050309 3 193 0.0 0.0 0.00 0.00 0.00 92 1013.8
20260508045724 3 197 0.0 0.0 0.00 0.00 0.00 92 1013.8
20260508045128 3 198 0.0 0.0 0.00 0.00 0.00 92 1013.8
20260508044542 3 196 0.0 0.0 0.00 0.00 0.00 93 1013.8
20260508043936 3 193 0.0 0.0 0.00 0.00 0.00 92 1013.8
20260508043347 3 195 0.0 0.0 0.00 0.00 0.00 91 1013.8
20260508042723 3 193 0.0 0.0 0.00 0.00 0.00 91 1013.5
20260508042141 3 192 0.0 0.0 0.00 0.00 0.00 91 1013.8
20260508041532 3 192 0.0 0.0 0.00 0.00 0.00 90 1013.5
20260508040318 3 196 0.0 0.0 0.00 0.00 0.00 88 1013.5
20260508035120 4 198 0.0 0.0 0.00 0.00 0.03 88 1013.5
20260508034526 4 199 0.0 0.0 0.00 0.00 0.03 87 1013.5
20260508033916 4 199 0.0 0.0 0.00 0.00 0.03 88 1013.2
20260508033321 4 199 0.0 0.0 0.00 0.00 0.03 86 1013.2
20260508032734 5 199 0.0 0.0 0.00 0.00 0.03 85 1013.2
20260508032147 5 199 0.0 0.0 0.00 0.00 0.03 85 1013.2
20260508031526 5 199 0.0 0.0 0.00 0.00 0.03 84 1013.2
20260508030931 5 199 0.0 0.0 0.00 0.00 0.03 84 1013.2
20260508030311 5 197 0.0 0.0 0.00 0.00 0.03 85 1013.2
20260508025719 5 196 0.0 0.0 0.00 0.00 0.03 84 1013.2
20260508025114 5 195 0.0 0.0 0.00 0.00 0.03 83 1013.2
20260508024525 6 195 0.0 0.0 0.00 0.00 0.03 82 1013.2
20260508023946 6 196 0.0 0.0 0.00 0.00 0.03 81 1012.8
20260508023341 6 195 0.0 0.0 0.00 0.00 0.03 80 1012.8
20260508022723 6 193 0.0 0.0 0.00 0.00 0.03 81 1012.8
20260508021515 6 193 0.0 0.0 0.00 0.00 0.03 78 1012.5
20260508020945 6 195 0.0 0.0 0.00 0.00 0.03 80 1012.8
20260508020349 6 196 0.0 0.0 0.00 0.00 0.03 79 1012.5
20260508015738 6 193 0.0 0.0 0.00 0.00 0.03 79 1012.5
20260508015145 7 193 0.0 0.0 0.00 0.00 0.03 80 1012.1
20260508014517 7 189 0.0 0.0 0.00 0.00 0.03 78 1012.1
20260508012725 8 210 0.0 1.6 0.00 0.00 0.03 74 1012.1
20260508011528 8 205 0.0 0.0 0.00 0.00 0.03 75 1011.8
20260508010935 8 202 0.0 0.0 0.00 0.00 0.03 73 1011.8
20260508010349 8 204 0.0 0.0 0.00 0.00 0.03 70 1011.5
20260508005736 9 202 0.0 0.0 0.00 0.00 0.03 71 1011.5
20260508003908 10 197 0.0 0.0 0.00 0.00 0.03 75 1011.5
20260508003340 10 200 0.0 0.0 0.00 0.00 0.03 75 1011.5
20260508002734 10 190 0.0 0.0 0.00 0.00 0.03 75 1011.1
20260508002110 10 193 0.0 0.0 0.00 0.00 0.03 72 1011.1
20260508001532 10 201 0.0 0.0 0.00 0.00 0.03 71 1011.1
20260508000949 10 163 1.6 1.6 0.00 0.00 0.03 72 1010.8
20260508000335 11 196 0.0 0.0 0.00 0.00 0.03 73 1010.8
20260507235747 11 206 0.0 0.0 0.00 0.00 0.03 76 1010.4
20260507235119 11 167 0.0 1.6 0.00 0.00 0.03 66 1010.8
20260507234551 12 198 0.0 0.0 0.00 0.00 0.03 69 1010.4
20260507233938 12 200 1.6 1.6 0.00 0.00 0.03 59 1010.4
20260507233347 12 201 0.0 0.0 0.00 0.00 0.03 69 1010.4
20260507231535 14 195 0.0 1.6 0.00 0.00 0.03 64 1010.4
20260507225744 16 284 0.0 1.6 0.00 0.00 0.03 46 1010.1
20260507225120 15 191 0.0 0.0 0.00 0.00 0.03 49 1010.1
20260507224527 15 171 1.6 1.6 0.00 0.00 0.03 58 1010.1
20260507223918 15 200 0.0 0.0 0.00 0.00 0.03 53 1010.1
20260507223338 15 187 1.6 1.6 0.00 0.00 0.03 66 1010.1
20260507222719 15 173 1.6 3.2 0.00 0.00 0.03 47 1009.8
20260507221516 15 207 0.0 1.6 0.00 0.00 0.03 44 1010.1
20260507220312 15 188 0.0 0.0 0.00 0.00 0.03 46 1009.8
20260507215738 15 191 0.0 0.0 0.00 0.00 0.03 47 1009.8
20260507215144 15 210 1.6 1.6 0.00 0.00 0.03 49 1009.8
20260507213944 16 168 0.0 1.6 0.00 0.00 0.03 50 1009.4
20260507212737 16 185 3.2 3.2 0.00 0.00 0.03 42 1009.4
20260507211532 15 197 3.2 4.8 0.00 0.00 0.03 45 1009.4
20260507210928 15 132 3.2 4.8 0.00 0.00 0.03 42 1009.4
20260507210344 16 175 3.2 3.2 0.00 0.00 0.03 56 1009.4
20260507204547 16 189 0.0 1.6 0.00 0.00 0.03 57 1009.4
20260507202737 16 245 6.4 9.7 0.00 0.00 0.03 46 1009.4
20260507202152 16 188 0.0 1.6 0.00 0.00 0.03 47 1009.4
20260507201538 16 142 1.6 1.6 0.00 0.00 0.03 45 1009.1
20260507200938 16 290 3.2 4.8 0.00 0.00 0.03 43 1009.4
20260507195752 15 152 1.6 1.6 0.00 0.00 0.03 45 1009.4
20260507195151 15 221 4.8 6.4 0.00 0.00 0.03 47 1009.4
20260507194514 16 171 1.6 3.2 0.00 0.00 0.03 46 1009.4
20260507193951 16 165 1.6 1.6 0.00 0.00 0.03 45 1009.8
20260507192732 15 179 6.4 6.4 0.00 0.00 0.03 47 1009.8
20260507192146 15 222 1.6 1.6 0.00 0.00 0.03 51 1009.8
20260507191535 15 186 1.6 1.6 0.00 0.00 0.03 50 1010.1
20260507190936 15 183 1.6 1.6 0.00 0.00 0.03 49 1010.1
20260507185724 16 210 4.8 6.4 0.00 0.00 0.03 44 1009.8
20260507185150 16 184 6.4 11.3 0.00 0.00 0.03 45 1010.1
20260507184549 16 161 1.6 3.2 0.00 0.00 0.03 46 1010.1
20260507183951 16 209 3.2 4.8 0.00 0.00 0.03 49 1010.1
20260507183308 16 139 3.2 4.8 0.00 0.00 0.03 45 1009.8
20260507182714 16 190 0.0 1.6 0.00 0.00 0.03 48 1010.1
20260507182150 15 125 1.6 1.6 0.00 0.00 0.03 49 1010.1
20260507181510 15 212 1.6 1.6 0.00 0.00 0.03 50 1010.1
20260507180928 15 170 1.6 3.2 0.00 0.00 0.03 55 1010.1
20260507180324 14 248 3.2 4.8 0.00 0.00 0.03 50 1010.1
20260507174520 15 188 1.6 1.6 0.00 0.00 0.03 52 1010.4
20260507173945 15 338 3.2 3.2 0.00 0.00 0.03 53 1010.4
20260507172732 16 185 1.6 1.6 0.00 0.00 0.03 48 1010.4
20260507172129 16 273 1.6 4.8 0.00 0.00 0.03 53 1010.4
20260507170911 14 255 4.8 6.4 0.00 0.00 0.03 56 1010.8
20260507170321 14 142 3.2 6.4 0.00 0.00 0.03 52 1010.8
20260507165750 14 180 3.2 3.2 0.00 0.00 0.03 60 1010.8
20260507165135 13 188 1.6 1.6 0.00 0.00 0.03 59 1010.8
20260507163923 13 181 1.6 1.6 0.00 0.00 0.03 60 1011.1
20260507162722 13 191 0.0 0.0 0.00 0.00 0.03 65 1011.1
20260507162152 13 235 3.2 3.2 0.00 0.00 0.03 58 1011.1
20260507161555 13 182 1.6 1.6 0.00 0.00 0.03 59 1011.1
20260507160923 13 218 1.6 1.6 0.00 0.00 0.03 59 1011.5
20260507160346 13 280 4.8 6.4 0.00 0.00 0.03 60 1011.5
20260507155731 13 213 0.0 1.6 0.00 0.00 0.03 70 1011.5
20260507155123 12 167 1.6 3.2 0.00 0.00 0.03 68 1011.5
20260507154519 12 284 3.2 4.8 0.00 0.00 0.03 64 1011.5
20260507153911 13 102 3.2 4.8 0.00 0.00 0.03 67 1011.5
20260507153315 12 220 1.6 1.6 0.00 0.00 0.03 76 1011.5
20260507152750 12 225 3.2 3.2 0.00 0.00 0.03 68 1011.8
20260507151534 12 233 4.8 4.8 0.00 0.00 0.03 69 1011.8
20260507150347 12 190 1.6 1.6 0.00 0.00 0.03 82 1011.5
20260507145715 12 193 1.6 1.6 0.00 0.00 0.03 71 1011.8
20260507145111 12 115 1.6 3.2 0.00 0.00 0.03 78 1011.8
20260507144515 11 221 3.2 4.8 0.00 0.00 0.03 74 1011.8
20260507143939 11 206 0.0 1.6 0.00 0.00 0.03 85 1011.8
20260507143320 11 188 0.0 0.0 0.00 0.00 0.03 81 1011.8
20260507142123 11 195 0.0 0.0 0.00 0.00 0.03 83 1012.1
20260507141517 11 180 1.6 1.6 0.00 0.00 0.03 79 1012.5
20260507140926 11 203 0.0 0.0 0.00 0.00 0.03 90 1012.5
20260507140342 10 207 1.6 1.6 0.00 0.00 0.03 89 1012.8
20260507135143 10 137 1.6 1.6 0.00 0.00 0.03 93 1012.8
20260507134519 10 237 3.2 3.2 0.00 0.00 0.03 93 1012.8
20260507133319 10 217 0.0 1.6 0.00 0.00 0.03 92 1012.8
20260507132743 10 198 0.0 0.0 0.00 0.00 0.03 93 1012.8
20260507132122 10 189 0.0 0.0 0.00 0.00 0.03 94 1012.8
20260507130911 10 212 0.0 0.0 0.00 0.00 0.03 95 1012.8
20260507130311 10 201 0.0 0.0 0.00 0.00 0.03 97 1012.8
20260507124550 10 203 0.0 0.0 0.00 0.00 0.03 98 1012.8
20260507123943 9 212 0.0 0.0 0.00 0.00 0.03 99 1012.8
20260507123343 9 220 0.0 0.0 0.00 0.00 0.03 99 1012.8
20260507122748 9 221 0.0 0.0 0.00 0.00 0.03 99 1012.8
20260507122127 9 200 0.0 0.0 0.00 0.00 0.03 99 1012.8
20260507120340 8 215 0.0 0.0 0.00 0.00 0.03 99 1012.8
20260507115712 8 213 0.0 0.0 0.00 0.00 0.03 99 1013.2
20260507115146 8 213 0.0 0.0 0.00 0.00 0.03 99 1012.8
20260507114527 8 202 0.0 0.0 0.00 0.00 0.03 99 1012.8
20260507113916 8 194 0.0 0.0 0.00 0.00 0.03 99 1012.8
20260507113326 8 197 0.0 0.0 0.00 0.00 0.03 99 1012.5
20260507112752 8 198 0.0 0.0 0.00 0.00 0.03 99 1012.5
20260507111513 8 196 0.0 0.0 0.00 0.00 0.03 99 1012.1
20260507110940 8 196 0.0 0.0 0.00 0.00 0.03 99 1012.1
20260507110320 8 195 0.0 0.0 0.00 0.00 0.03 99 1012.1
20260507105717 8 199 0.0 0.0 0.00 0.00 0.03 99 1012.1
20260507105143 8 199 0.0 0.0 0.00 0.00 0.03 99 1012.1
20260507104546 8 199 0.0 0.0 0.00 0.00 0.03 99 1011.8
20260507103320 8 201 0.0 0.0 0.00 0.00 0.03 99 1011.8
20260507102729 8 195 0.0 0.0 0.00 0.00 0.03 99 1011.8
20260507101525 8 191 0.0 0.0 0.00 0.00 0.03 99 1012.1
20260507100912 8 200 0.0 0.0 0.00 0.00 0.03 99 1012.1
20260507100332 8 195 0.0 0.0 0.00 0.00 0.03 99 1012.1
20260507095740 8 198 0.0 0.0 0.00 0.00 0.03 99 1012.1
20260507095110 8 197 0.0 0.0 0.00 0.00 0.03 99 1011.8
20260507093930 8 194 0.0 0.0 0.00 0.00 0.03 99 1011.8
20260507093344 8 199 0.0 0.0 0.00 0.00 0.03 99 1011.8
20260507092744 8 205 0.0 0.0 0.00 0.00 0.03 99 1011.5
20260507092130 8 195 0.0 0.0 0.00 0.00 0.03 99 1012.1
20260507091510 8 195 0.0 0.0 0.00 0.00 0.03 99 1011.8
20260507090939 8 202 0.0 0.0 0.00 0.00 0.03 99 1011.8
20260507090318 8 195 0.0 0.0 0.00 0.00 0.03 99 1011.5
20260507085715 8 195 0.0 0.0 0.00 0.00 0.03 99 1011.5
20260507085109 8 192 0.0 0.0 0.00 0.00 0.03 99 1011.5
20260507084541 8 197 0.0 0.0 0.00 0.00 0.03 99 1011.8
20260507083925 8 195 0.0 0.0 0.00 0.00 0.03 99 1011.8
20260507083327 8 195 0.0 0.0 0.00 0.00 0.03 99 1011.8
20260507082121 8 200 0.0 0.0 0.00 0.00 0.03 99 1011.8
20260507081530 8 202 0.0 0.0 0.00 0.00 0.03 99 1011.8
20260507080917 8 198 0.0 0.0 0.00 0.00 0.03 99 1011.5
20260507080337 8 198 0.0 0.0 0.00 0.00 0.03 99 1011.8
20260507075716 8 195 0.0 0.0 0.00 0.00 0.03 99 1011.8
20260507075135 9 197 0.0 0.0 0.00 0.00 0.03 99 1011.8
20260507074541 8 200 0.0 0.0 0.00 0.00 0.03 99 1011.8
20260507073952 9 190 0.0 0.0 0.00 0.00 0.03 99 1011.8
20260507073328 9 202 0.0 0.0 0.00 0.00 0.03 99 1011.5
20260507072748 9 213 0.0 0.0 0.00 0.00 0.03 99 1011.8
20260507072116 9 213 0.0 0.0 0.00 0.00 0.03 99 1011.8
20260507071537 9 213 0.0 0.0 0.00 0.00 0.03 99 1011.8
20260507070310 9 213 0.0 0.0 0.00 0.00 0.03 99 1011.8
20260507065753 9 213 0.0 0.0 0.00 0.00 0.03 99 1011.8
20260507064514 9 213 0.0 0.0 0.00 0.00 0.03 99 1011.8
20260507063913 9 202 0.0 0.0 0.00 0.00 0.03 99 1011.8
20260507063347 9 202 0.0 0.0 0.00 0.00 0.03 99 1011.8
20260507062716 9 198 0.0 0.0 0.00 0.00 0.03 99 1011.8
20260507062130 9 197 0.0 0.0 0.00 0.00 0.03 99 1011.8
20260507061517 9 204 0.0 0.0 0.00 0.00 0.03 99 1011.8
20260507060928 9 193 0.0 0.0 0.00 0.00 0.03 99 1011.8
20260507060317 9 213 0.0 1.6 0.00 0.00 0.03 99 1011.8
20260507055734 10 190 0.0 0.0 0.00 0.00 0.03 99 1011.8
20260507055110 10 191 0.0 0.0 0.00 0.00 0.03 99 1012.1